Regional Weather Roundup
Issued by NWS

Home | Current Version | Previous Version | Graphics & Text | Print | Product List | Glossary On
Versions: 1 2 3 4 5 6 7 8 9 10 11 12 13 14 15 16 17 18 19 20 21 22 23 24 25 26 27 28 29 30 31 32 33 34 35 36 37 38 39 40 41 42 43 44 45 46 47 48 49 50
000
ASUS45 KBOI 242310
RWRID

IDAHO REGIONAL WEATHER ROUNDUP
NATIONAL WEATHER SERVICE BOISE ID
500 PM MDT SUN SEP 24 2017

NOTE: "FAIR" INDICATES FEW OR NO CLOUDS BELOW 12000 FEET
WITH NO SIGNIFICANT WEATHER AND/OR OBSTRUCTIONS TO VISIBILITY

IDZ012-014-250000-
SOUTHWEST IDAHO


CITY           SKY/WX    TMP DP  RH WIND       PRES   REMARKS
BOISE          MOSUNNY   65  28  24 W9G17     29.99F
CALDWELL       MOSUNNY   68  33  27 NW21G26   30.00F
MOUNTAIN HOME  SUNNY     65  31  27 NW12      30.00F
$$

IDZ016-017-250000-
SOUTHCENTRAL IDAHO


CITY           SKY/WX    TMP DP  RH WIND       PRES   REMARKS
BURLEY         SUNNY     56  30  37 W12G17    30.02S
JEROME         SUNNY     58  28  32 W16       30.03S
TWIN FALLS     SUNNY     57  28  33 W15G21    30.03S
$$

IDZ019>023-250000-
SOUTHEAST IDAHO


CITY           SKY/WX    TMP DP  RH WIND       PRES   REMARKS
IDAHO FALLS    PTSUNNY   56  33  42 NW18G24   29.99R
POCATELLO      CLOUDY    57  31  37 W9        30.01R
REXBURG        CLOUDY    57  32  38 N10G18    29.96S
$$

IDZ006-010-011-018-031-032-250000-
CENTRAL IDAHO MOUNTAINS


CITY           SKY/WX    TMP DP  RH WIND       PRES   REMARKS
MCCALL         CLOUDY    52  31  44 N12       30.06R
HAILEY         MOSUNNY   57  27  30 W7        30.01S
STANLEY          N/A     49  23  36 N8        30.07S
SALMON         CLOUDY    56  26  31 CALM      30.06S
CHALLIS        PTSUNNY   51  27  39 N7        30.05S
$$

IDZ002-004-006-007-026-250000-
NORTHERN IDAHO


CITY           SKY/WX    TMP DP  RH WIND       PRES   REMARKS
LEWISTON       SUNNY     68  40  35 VRB3      30.07F
LOWELL           N/A     58  47  66 CALM      30.08F
COEUR D`ALENE  CLOUDY    66  39  37 SW8       30.06F
MULLAN PASS    CLOUDY    43  33  68 VRB3      30.11F
$$



USA.gov is the U.S. government's official web portal to all federal, state and local government web resources and services.